803  
ASUS42 KRAH 210410  
RWRRAH  
NORTH CAROLINA WEATHER ROUNDUP  
NATIONAL WEATHER SERVICE RALEIGH NC  
1200 AM EDT MON AUG 21 2017  
 
NOTE: "FAIR" INDICATES FEW OR NO CLOUDS BELOW 12,000 FEET WITH NO  
SIGNIFICANT WEATHER AND/OR S TO VISIBILITY
.  
 
NCZ001-053-055-056-065-067-210500-  
WESTERN NORTH CAROLINA  
 
CITY SKY/WX TMP DP RH WIND PRES REMARKS
 
ASHEVILLE PTCLDY 71 68 90 CALM 30.26S  
JEFFERSON CLEAR 71 64 78 CALM 30.31S  
MORGANTON CLEAR 72 71 96 CALM 30.23S  
HICKORY CLEAR 74 71 91 CALM 30.18F  
RUTHERFORDTON PTCLDY 72 72 100 CALM 30.19S  
MOUNT AIRY CLEAR 74 68 82 CALM 30.22S  
BOONE CLEAR 64 64 100 CALM 30.32S  

 
 
NCZ021-022-025-041-071-084-088-210500-  
CENTRAL NORTH CAROLINA  
 
CITY SKY/WX TMP DP RH WIND PRES REMARKS
 
CHARLOTTE MOCLDY 84 72 67 E6 30.17S  
GREENSBORO PTCLDY 79 69 71 SE6 30.17F  
WINSTON-SALEM CLEAR 77 66 68 SE3 30.19S  
RALEIGH-DURHAM PTCLDY 81 71 71 S6 30.18S  
FORT BRAGG PTCLDY 80 74 84 SE3 30.15S  
FAYETTEVILLE PTCLDY 77 75 93 CALM 30.16R  
BURLINGTON CLEAR 73 70 90 CALM 30.17F  
LAURINBURG CLOUDY 76 75 97 CALM 30.16S  

 
 
NCZ011-015-027-028-043-044-047-080-103-210500-  
NORTHEASTERN NORTH CAROLINA  
 
CITY SKY/WX TMP DP RH WIND PRES REMARKS
 
ROCKY MT-WILSO CLEAR 74 73 97 CALM 30.17S  
GREENVILLE CLEAR 77 73 88 CALM 30.18S  
WASHINGTON PTCLDY 76 74 92 CALM 30.17S  
ELIZABETH CITY CLEAR 75 75 100 CALM 30.18S  
MANTEO MOCLDY 75 74 96 CALM 30.18S  
CAPE HATTERAS MOCLDY 77 77 100 CALM 30.16F  

 
 
NCZ078-087-090-091-093-098-101-210500-  
SOUTHEASTERN NORTH CAROLINA  
 
CITY SKY/WX TMP DP RH WIND PRES REMARKS
 
LUMBERTON PTCLDY 74 73 97 CALM 30.15S  
GOLDSBORO NOT AVBL  
KINSTON PTCLDY 76 74 92 CALM 30.17S  
KENANSVILLE CLOUDY 73 73 100 CALM 30.17S FOG  
NEW BERN PTCLDY 75 75 100 CALM 30.18S  
CHERRY POINT MOCLDY 77 74 90 CALM 30.17S  
BEAUFORT CLOUDY 77 77 100 CALM 30.16S  
JACKSONVILLE CLOUDY 77 77 100 CALM 30.15S  
WILMINGTON MOCLDY 77 76 96 N3 30.15S  

 
 
 
 
CLICK HERE TO GO TO PREVIOUS BULLETINS.

The Nexlab NC Page Main Text Page